Doha, Qatar

10:21 AM +03 on April 27, 2017 (GMT +0300)
Doha International

Weather History for OTBD - July, 2013

Change the Weather History Date:

Sunday, July 14, 2013

  Actual Average Record
Temperature  
Mean Temperature 96 °F -  
Max Temperature 104 °F 106 °F 122 °F (2010)
Min Temperature 89 °F 84 °F 84 °F (2001)
Cooling Degree Days 32    
Growing Degree Days 46 (Base 50)    
Moisture  
Dew Point 76 °F    
Average Humidity 54    
Maximum Humidity 79    
Minimum Humidity 18    
Precipitation  
Precipitation 0.00 in 0.00 in - ()
Sea Level Pressure  
Sea Level Pressure 29.44 in    
Wind  
Wind Speed 6 mph ()    
Max Wind Speed 25 mph    
Max Gust Speed -    
Visibility 4.5 miles    
Events      
Averages and records for this station are not official NWS values.
T = Trace of Precipitation, MM = Missing Value Source: Averaged Metar Reports

Daily Weather History Graph

Daily Weather History Graph

Search for Another Location

Airport or City:

Trip Planner

Search our weather history database for the weather conditions in past years. The results will help you decide how hot, cold, wet, or windy it might be!

Date:

Astronomy

Jul. 14, 2013 Rise Set
Actual Time 4:52 AM +03 6:26 PM +03
Civil Twilight 4:26 AM +03 6:52 PM +03
Nautical Twilight 3:56 AM +03 7:22 PM +03
Astronomical Twilight 3:24 AM +03 7:54 PM +03
Moon 10:04 AM +03 (7/14) 10:09 PM +03 (7/14)
Length of Visible Light 14h 25m
Length of Day
13h 34m
Waxing Crescent, 32% of the Moon is Illuminated
Jul 14
Waxing Crescent
Jul 16
First Quarter
Jul 22
Full
Jul 29
Last Quarter
Aug 7
New

Hourly Weather History & Observations

Time (+03) Temp. Heat Index Dew Point Humidity Pressure Visibility Wind Dir Wind Speed Gust Speed Precip Events Conditions
12:00 AM 94 °F - 76 °F 46% 29.44 in 4 mi NNW 3.5 mph - -   Widespread Dust
12:00 AM 95.0 °F 107.4 °F 75.2 °F 53% 29.42 in 4.3 mi NNW 3.5 mph - N/A   Unknown
12:30 AM 93.2 °F 105.0 °F 75.2 °F 56% 29.42 in 4.3 mi North 3.5 mph - N/A   Unknown
1:00 AM 93.2 °F 102.4 °F 73.4 °F 52% 29.42 in 5.0 mi NNW 3.5 mph - N/A   Unknown
1:30 AM 93.2 °F 102.4 °F 73.4 °F 52% 29.42 in 5.6 mi Variable 2.3 mph - N/A   Unknown
2:00 AM 93.2 °F 105.0 °F 75.2 °F 56% 29.42 in 5.6 mi North 3.5 mph - N/A   Unknown
2:30 AM 93.2 °F 102.4 °F 73.4 °F 52% 29.42 in 5.0 mi NNE 4.6 mph - N/A   Unknown
3:00 AM 91 °F - 76 °F 54% 29.44 in 5 mi NNE 11.2 mph - -   Widespread Dust
3:00 AM 91.4 °F 105.1 °F 77.0 °F 63% 29.42 in 5.0 mi NNE 5.8 mph - N/A   Unknown
3:30 AM 91.4 °F 111.0 °F 80.6 °F 71% 29.42 in 5.0 mi North 3.5 mph - N/A   Unknown
4:00 AM 91.4 °F 114.3 °F 82.4 °F 75% 29.42 in 4.3 mi NNW 3.5 mph - N/A   Unknown
4:30 AM 89.6 °F 111.1 °F 82.4 °F 79% 29.44 in 4.3 mi North 3.5 mph - N/A   Unknown
5:00 AM 89.6 °F 111.1 °F 82.4 °F 79% 29.44 in 3.7 mi NNW 3.5 mph - N/A   Unknown
6:00 AM 91 °F - 80 °F 64% 29.47 in 4 mi North 3.5 mph - -   Widespread Dust
6:00 AM 91.4 °F 111.0 °F 80.6 °F 71% 29.44 in 3.7 mi North 3.5 mph - N/A   Unknown
6:30 AM 93.2 °F 113.6 °F 80.6 °F 67% 29.47 in 3.7 mi Variable 2.3 mph - N/A   Unknown
7:00 AM 93.2 °F 107.2 °F 77.0 °F 59% 29.47 in 3.7 mi NNE 4.6 mph - N/A   Unknown
8:00 AM 98.6 °F 105.5 °F 69.8 °F 39% 29.47 in 3.7 mi North 6.9 mph - N/A   Unknown
8:30 AM 100.4 °F 102.4 °F 62.6 °F 29% 29.47 in 3.7 mi North 5.8 mph - N/A   Unknown
9:00 AM 101 °F - 61 °F 18% 29.49 in 5 mi North 13.4 mph - -   Smoke
9:00 AM 100.4 °F 101.3 °F 60.8 °F 27% 29.47 in 5.0 mi North 6.9 mph - N/A   Unknown
9:30 AM 102.2 °F 104.2 °F 62.6 °F 27% 29.47 in 5.0 mi NNE 5.8 mph - N/A   Unknown
10:00 AM 100.4 °F 106.3 °F 68.0 °F 35% 29.47 in 5.0 mi NNE 6.9 mph - N/A   Unknown
10:30 AM 100.4 °F 104.9 °F 66.2 °F 33% 29.47 in 5.0 mi North 6.9 mph - N/A   Unknown
11:00 AM 102.2 °F 104.2 °F 62.6 °F 27% 29.47 in 5.0 mi North 9.2 mph - N/A   Unknown
11:30 AM 102.2 °F 103.6 °F 60.8 °F 26% 29.47 in 5.0 mi NNE 10.4 mph - N/A   Unknown
12:00 PM 100 °F - 76 °F 37% 29.47 in 5 mi NE 15.7 mph - -   Widespread Dust
12:00 PM 100.4 °F 113.6 °F 75.2 °F 44% 29.44 in 5.0 mi NE 8.1 mph - N/A   Unknown
12:30 PM 102.2 °F 114.4 °F 73.4 °F 40% 29.44 in 5.0 mi NE 8.1 mph - N/A   Unknown
1:00 PM 102.2 °F 114.4 °F 73.4 °F 40% 29.44 in 5.0 mi NNE 8.1 mph - N/A   Unknown
1:30 PM 100.4 °F 111.9 °F 73.4 °F 42% 29.44 in 5.0 mi NE 10.4 mph - N/A   Unknown
2:00 PM 102.2 °F 110.0 °F 69.8 °F 35% 29.42 in 5.0 mi NE 9.2 mph - N/A   Unknown
2:30 PM 102.2 °F 108.4 °F 68.0 °F 33% 29.42 in 5.0 mi NNE 10.4 mph - N/A   Unknown
3:00 PM 102 °F - 72 °F 29% 29.44 in 5 mi North 24.6 mph - -   Widespread Dust
3:00 PM 102.2 °F 111.7 °F 71.6 °F 37% 29.42 in 5.0 mi North 12.7 mph - N/A   Unknown
3:30 PM 100.4 °F 116.5 °F 77.0 °F 47% 29.42 in 5.0 mi NNE 10.4 mph - N/A   Unknown
4:00 PM 98.6 °F 117.2 °F 78.8 °F 53% 29.42 in 4.3 mi NNE 10.4 mph - N/A   Unknown
4:30 PM 96.8 °F 112.2 °F 77.0 °F 53% 29.42 in 4.3 mi NE 11.5 mph - N/A   Unknown
5:00 PM 96.8 °F 114.8 °F 78.8 °F 56% 29.42 in 4.3 mi NNE 9.2 mph - N/A   Unknown
5:30 PM 95.0 °F 119.6 °F 82.4 °F 67% 29.42 in 4.3 mi NNE 10.4 mph - N/A   Unknown
6:00 PM 94 °F - 82 °F 62% 29.44 in 4 mi North 20.1 mph - -   Haze
6:00 PM 95.0 °F 119.6 °F 82.4 °F 67% 29.42 in 3.7 mi North 10.4 mph - N/A   Unknown
6:30 PM 93.2 °F 120.9 °F 84.2 °F 75% 29.42 in 3.7 mi NNE 9.2 mph - N/A   Unknown
7:00 PM 93.2 °F 117.1 °F 82.4 °F 71% 29.44 in 3.7 mi NNE 6.9 mph - N/A   Unknown
7:30 PM 93.2 °F 120.9 °F 84.2 °F 75% 29.44 in 3.7 mi NE 6.9 mph - N/A   Unknown
8:00 PM 93.2 °F 120.9 °F 84.2 °F 75% 29.44 in 3.7 mi NE 6.9 mph - N/A   Unknown
8:30 PM 91.4 °F 117.8 °F 84.2 °F 79% 29.44 in 3.7 mi ENE 5.8 mph - N/A   Unknown
9:00 PM 92 °F - 84 °F 72% 29.47 in 4 mi NE 4.6 mph - -   Haze
9:00 PM 91.4 °F 117.8 °F 84.2 °F 79% 29.47 in 4.3 mi NE 4.6 mph - N/A   Unknown
10:00 PM 91.4 °F 117.8 °F 84.2 °F 79% 29.44 in 4.3 mi East 3.5 mph - N/A   Unknown
10:30 PM 91.4 °F 117.8 °F 84.2 °F 79% 29.44 in 3.7 mi East 3.5 mph - N/A   Unknown
11:00 PM 91.4 °F 117.8 °F 84.2 °F 79% 29.44 in 4.3 mi Variable 2.3 mph - N/A   Unknown
11:30 PM 91.4 °F 111.0 °F 80.6 °F 71% 29.44 in 5.0 mi Variable 2.3 mph - N/A   Unknown